Flag for USA

Past Weather in Coos Bay, Oregon, USA — Yesterday and Last 2 Weeks

Now
62 °F

Overcast.


Feels Like: 62 °F
Forecast: 65 / 55 °F
Wind: 8 mph from North

Location: North Bend Weather Reporting Station

Current Time: Jul 6, 2020 at 5:45:28 pm

Latest Report: Jul 6, 2020 at 4:56 pm


Visibility: 10 mi

Pressure: 30.14 "Hg

Humidity: 75%

Dew Point: 54 °F

Location of Coos BayLocation

Past Weather in Coos Bay — Graph

°F

Coos Bay Temperature Yesterday

Maximum temperature yesterday: 65 °F (at 11:56 am)
Minimum temperature yesterday: 48 °F (at 4:06 am)
Average temperature yesterday: 57 °F

High & Low Weather Summary for the Past Weeks

 TemperatureHumidityPressure
High70 °F (Jun 24, 2:23 pm)100% (Jun 22, 1:56 am)30.25 "Hg (Jun 22, 1:56 am)
Low48 °F (Jul 5, 4:06 am)58% (Jul 3, 4:56 pm)29.98 "Hg (Jun 23, 4:56 pm)
Average58 °F87%30.09 "Hg
* Reported Jun 21 4:05 pm — Jul 6 3:56 pm, Coos Bay. Weather by CustomWeather, © 2020

Note: Actual official high and low records may vary slightly from our data, if they occured in-between our weather recording intervals... More about our weather records

Coos Bay Weather History for the Previous 24 Hours

Scroll right to see more
 ConditionsComfort  
Time TempWeatherWind HumidityBarometerVisibility
3:56 pm
Mon, Jul 6
62 °FOvercast.9 mph70%30.14 "Hg10 mi
2:56 pm63 °FOvercast.7 mph68%30.14 "Hg10 mi
2:06 pm64 °FMore clouds than sun.13 mph73%30.13 "Hg10 mi
1:56 pm62 °FMostly cloudy.10 mph78%30.13 "Hg10 mi
12:56 pm61 °FMostly cloudy.9 mph78%30.14 "Hg10 mi
12:35 pm63 °FMostly cloudy.9 mph77%30.14 "Hg9 mi
11:56 am60 °FOvercast.9 mph86%30.14 "Hg10 mi
11:41 am59 °FOvercast.10 mph88%30.14 "Hg10 mi
11:16 am57 °FMostly cloudy.8 mph94%30.13 "Hg10 mi
10:56 am58 °FMostly cloudy.10 mph90%30.13 "Hg10 mi
10:43 am59 °FMostly cloudy.9 mph88%30.13 "Hg10 mi
10:11 am59 °FCloudy.6 mph88%30.13 "Hg10 mi
9:56 am58 °FMore clouds than sun.7 mph90%30.13 "Hg10 mi
8:56 am57 °FLight rain. Overcast.7 mph96%30.13 "Hg8 mi
7:56 am57 °FOvercast.No wind93%30.13 "Hg10 mi
7:38 am55 °FOvercast.No wind100%30.13 "Hg10 mi
6:56 am55 °FLow clouds.No wind96%30.13 "Hg10 mi
6:27 am55 °FLight rain. Fog.3 mph94%30.14 "Hg2 mi
6:06 am55 °FLight rain. Fog.3 mph100%30.13 "Hg4 mi
5:30 am55 °FLight rain. Fog.3 mph100%30.13 "Hg4 mi
5:19 am55 °FLight rain. Fog.5 mph100%30.13 "Hg5 mi
4:56 am55 °FLight rain. Fog.6 mph100%30.13 "Hg4 mi
4:28 am55 °FRain. Fog.7 mph100%30.13 "Hg5 mi
3:56 am56 °FOvercast.No wind97%30.13 "Hg10 mi
2:56 am56 °FOvercast.No wind97%30.14 "Hg10 mi
1:56 am56 °FMostly cloudy.3 mph97%30.15 "Hg10 mi
1:27 am55 °FMostly cloudy.No wind94%30.15 "Hg10 mi
12:56 am55 °FPassing clouds.3 mph96%30.15 "Hg10 mi
12:27 am55 °FPassing clouds.3 mph94%30.15 "Hg10 mi
11:56 pm
Sun, Jul 5
56 °FPassing clouds.3 mph93%30.15 "Hg10 mi
11:22 pm55 °FPassing clouds.5 mph94%30.16 "Hg10 mi
10:56 pm57 °FOvercast.5 mph90%30.16 "Hg10 mi
10:26 pm57 °FPassing clouds.5 mph88%30.17 "Hg10 mi
9:56 pm57 °FPassing clouds.6 mph90%30.17 "Hg10 mi
8:56 pm58 °FSunny.9 mph84%30.17 "Hg10 mi
7:56 pm60 °FSunny.13 mph78%30.17 "Hg10 mi
6:56 pm61 °FPassing clouds.12 mph78%30.18 "Hg10 mi
5:56 pm63 °FSunny.13 mph73%30.18 "Hg10 mi
Weather by CustomWeather, © 2020

See weather overview